User: anonymous   Login
Location: Chandrammap?lem
(16.9200°N, 81.0051°E)
Time: 06:50:14
(UTC+00:00)
Language:

CZ-4B R/B - Orbit

View from above orbital plane
View from above orbital plane
View from above satellite
View from above satellite

Ground track
Ground track

The orbit data is extracted from the following two-line orbital elements,

1 27432U 02024C   24202.85776177  .00000161  00000-0  10708-3 0  9991
2 27432  98.9732 245.3384 0049257 275.8189 258.2860 14.14337600144867
Epoch (UTC): 20 July 2024 20:35:10
Eccentricity: 0.0049257
inclination: 98.9732°
perigee height: 809 km
apogee height: 880 km
right ascension of ascending node: 245.3384°
argument of perigee: 275.8189°
revolutions per day: 14.14337600
mean anomaly at epoch: 258.2860°
orbit number at epoch: 14486

The dashed part of the orbit path shows where the satellite is in the earth's shadow,  

DLR